1496386800.46,37739,18.69,74152.0,9.71,-30.39,-31.85,0,*7D
1496386801.71,37740,18.69,74154.8,9.71,-29.73,-31.39,0,*72
1496386802.91,37741,18.69,74140.3,9.67,-29.79,-31.01,0,*75
1496386804.17,37742,18.69,74138.5,9.69,-27.19,-28.43,0,*7E
1496386805.43,37743,18.69,74136.8,9.69,-28.91,-30.27,0,*7B
1496386806.68,37744,18.69,74146.3,9.69,-31.17,-32.85,0,*70
1496386807.9,37745,18.69,74142.0,9.67,-31.79,-33.31,0,*79
1496386809.15,37746,18.69,74142.3,9.63,-30.17,-31.61,0,*70
1496386810.4,37747,18.69,74148.0,9.63,-28.63,-30.05,0,*78
1496386811.68,37748,18.69,74146.0,9.65,-28.21,-30.01,0,*73
1496386812.91,37749,18.69,74144.3,9.63,-28.85,-30.05,0,*7E
1496386814.13,37750,18.69,74144.3,9.65,-27.77,-29.23,0,*7E
1496386815.37,37751,18.69,74146.3,9.63,-29.17,-30.55,0,*78
1496386816.62,37752,18.69,74152.0,9.63,-29.13,-30.39,0,*75
1496386817.87,37753,18.69,74154.8,9.63,-28.79,-30.17,0,*75
1496386819.14,37754,18.69,74134.3,9.61,-27.83,-29.29,0,*7F
1496386820.39,37755,18.69,74146.8,9.61,-27.67,-29.17,0,*79
1496386821.61,37756,18.69,74142.5,9.63,-28.79,-30.23,0,*77
1496386822.85,37757,18.69,74130.5,9.63,-30.89,-32.29,0,*78
1496386824.1,37758,18.69,74142.3,9.57,-32.23,-33.73,0,*7C
1496386825.35,37759,18.69,74138.3,9.59,-31.57,-33.31,0,*75
1496386826.6,37760,18.69,74140.0,9.53,-30.73,-32.13,0,*73
1496386827.85,37761,18.69,74136.3,9.53,-30.01,-31.29,0,*7D
1496386829.09,37762,18.69,74138.8,9.49,-28.47,-29.83,0,*77
1496386830.34,37763,18.69,74140.3,9.53,-26.77,-27.93,0,*7F
1496386831.62,37764,18.69,74146.3,9.53,-25.97,-27.35,0,*79
1496386832.87,37765,18.69,74148.5,9.55,-28.25,-29.73,0,*76
1496386834.09,37766,18.69,74128.8,9.55,-28.09,-29.57,0,*7D
1496386835.32,37767,18.69,74124.8,9.57,-26.49,-27.77,0,*78
1496386836.52,37768,18.69,74132.8,9.55,-29.61,-31.17,0,*71
1496386837.74,37769,18.69,74132.3,9.55,-32.13,-33.89,0,*7A
1496386838.99,37770,18.69,74134.3,9.53,-31.29,-32.79,0,*70
1496386840.22,37771,18.69,74134.5,9.49,-29.83,-31.17,0,*78
1496386841.47,37772,18.69,74132.5,9.47,-27.45,-28.63,0,*7A
1496386842.75,37773,18.69,74136.3,9.49,-27.45,-29.01,0,*70
1496386844.0,37774,18.69,74138.3,9.49,-30.27,-31.85,0,*70
1496386845.22,37775,18.69,74136.8,9.47,-30.23,-31.51,0,*72
1496386846.44,37776,18.69,74132.0,9.45,-29.79,-31.33,0,*70
1496386847.7,37777,18.69,74132.0,9.45,-28.53,-29.89,0,*70
1496386848.93,37778,18.69,74136.5,9.45,-31.67,-33.15,0,*7E
1496386850.21,37779,18.69,74134.5,9.41,-32.07,-33.43,0,*7D
1496386851.47,37780,18.69,74134.8,9.41,-30.17,-31.45,0,*7C
1496386852.73,37781,18.69,74138.3,9.39,-29.23,-30.77,0,*7D
1496386853.95,37782,18.69,74142.5,9.39,-29.83,-31.17,0,*73
1496386855.14,37783,18.69,74136.5,9.37,-30.45,-32.01,0,*7A
1496386856.36,37784,18.69,74132.8,9.37,-30.95,-32.57,0,*73
1496386857.58,37785,18.69,74132.3,9.35,-31.01,-32.39,0,*74
1496386858.82,37786,18.69,74138.0,9.35,-28.43,-29.79,0,*77
1496386860.06,37787,18.69,74142.5,9.35,-27.89,-29.39,0,*7B
1496386861.34,37788,18.69,74138.5,9.35,-29.13,-30.61,0,*7C
1496386862.56,37789,18.69,74134.5,9.33,-31.67,-33.43,0,*72
1496386863.82,37790,18.69,74136.5,9.35,-29.95,-31.23,0,*7C
1496386865.04,37791,18.69,74132.3,9.33,-28.69,-30.05,0,*7C
1496386866.28,37792,18.69,74128.8,9.35,-27.89,-29.13,0,*77
1496386867.5,37793,18.69,74138.0,9.35,-26.39,-27.51,0,*74
1496386868.73,37794,18.69,74142.3,9.35,-26.03,-27.07,0,*79
1496386869.95,37795,18.69,74146.3,9.37,-25.19,-26.29,0,*7F
1496386871.21,37796,18.69,74146.5,9.41,-24.25,-25.39,0,*71
1496386872.5,37797,18.69,74148.5,9.45,-26.77,-28.05,0,*73
1496386873.72,37798,18.69,74142.3,9.47,-28.75,-30.23,0,*7F
1496386874.94,37799,18.69,74140.8,9.45,-32.39,-34.07,0,*7D
1496386876.17,37800,18.69,74136.5,9.43,-30.17,-31.67,0,*79
1496386877.42,37801,18.69,74138.8,9.41,-30.23,-31.61,0,*7B
1496386878.65,37802,18.69,74130.8,9.41,-27.71,-28.85,0,*7B
1496386879.93,37803,18.69,74134.0,9.41,-26.77,-27.99,0,*7F
1496386881.17,37804,18.69,74130.3,9.43,-28.91,-30.33,0,*7A
1496386882.43,37805,18.69,74130.8,9.43,-28.59,-30.01,0,*7E
1496386883.71,37806,18.69,74130.8,9.41,-26.97,-28.25,0,*7C
1496386884.92,37807,18.69,74134.8,9.43,-26.49,-27.89,0,*75
1496386886.12,37808,18.69,74142.3,9.43,-25.91,-27.07,0,*7A
1496386887.34,37809,18.69,74146.5,9.47,-25.19,-26.33,0,*79
1496386888.6,37810,18.69,74144.5,9.47,-29.17,-30.73,0,*70
1496386889.82,37811,18.69,74142.3,9.47,-27.19,-28.31,0,*7E
1496386891.04,37812,18.69,74140.0,9.53,-27.55,-28.69,0,*7D
1496386892.29,37813,18.69,74136.0,9.49,-28.21,-29.83,0,*7E
1496386893.56,37814,18.69,74136.0,9.49,-30.55,-31.95,0,*7D
1496386894.81,37815,18.69,74140.8,9.45,-31.67,-33.31,0,*7C
1496386896.04,37816,18.69,74142.5,9.43,-33.15,-34.95,0,*77
1496386897.26,37817,18.69,74140.3,9.39,-33.67,-35.59,0,*7F
1496386898.48,37818,18.69,74146.3,9.33,-33.55,-35.35,0,*71
1496386899.73,37819,18.69,74150.8,9.27,-32.01,-33.61,0,*72
1496386900.99,37820,18.69,74134.5,9.27,-29.23,-30.61,0,*71
1496386902.24,37821,18.69,74132.0,9.27,-26.77,-27.93,0,*75
1496386903.52,37822,18.69,74136.5,9.31,-26.13,-27.23,0,*78
1496386904.74,37823,18.69,74128.8,9.35,-26.23,-27.67,0,*7E
1496386905.96,37824,18.69,74134.8,9.35,-27.93,-29.57,0,*7E
1496386907.19,37825,18.69,74134.0,9.33,-32.01,-33.49,0,*72
1496386908.41,37826,18.69,74132.8,9.31,-32.51,-34.13,0,*7E
1496386909.67,37827,18.69,74138.5,9.31,-29.45,-30.73,0,*72
1496386910.89,37828,18.69,74138.8,9.27,-27.77,-29.07,0,*7E
1496386912.13,37829,18.69,74138.3,9.31,-26.55,-27.89,0,*71
1496386913.35,37830,18.69,74140.8,9.31,-26.45,-27.71,0,*7F
1496386914.58,37831,18.69,74142.3,9.35,-25.87,-27.03,0,*72
1496386915.83,37832,18.69,74140.8,9.35,-27.39,-28.85,0,*77
1496386917.07,37833,18.69,74142.3,9.35,-27.55,-28.75,0,*73
1496386918.28,37834,18.69,74140.3,9.37,-27.35,-28.69,0,*7D
1496386919.54,37835,18.69,74140.0,9.39,-29.89,-31.17,0,*7A
1496386920.81,37836,18.69,74130.8,9.35,-30.61,-32.07,0,*79
1496386922.09,37837,18.69,74132.3,9.35,-31.11,-32.79,0,*77
1496386923.31,37838,18.69,74136.5,9.33,-28.59,-29.95,0,*72
1496386924.53,37839,18.69,74138.8,9.33,-26.87,-28.09,0,*7A
1496386925.77,37840,18.69,74142.0,9.35,-27.19,-28.53,0,*7B
1496386927.01,37841,18.69,74144.5,9.35,-28.75,-30.11,0,*70
1496386928.24,37842,18.69,74142.0,9.35,-29.79,-31.17,0,*79
1496386929.47,37843,18.69,74132.5,9.33,-29.61,-31.11,0,*71
1496386930.71,37844,18.69,74130.0,9.33,-30.17,-31.73,0,*7B
1496386931.97,37845,18.69,74118.0,9.33,-28.75,-30.17,0,*74
1496386933.19,37846,18.69,74118.0,9.33,-25.65,-26.81,0,*73
1496386934.43,37847,18.69,74118.0,9.35,-27.55,-28.75,0,*70
1496386935.65,37848,18.69,74114.8,9.35,-25.91,-27.07,0,*7F
1496386936.87,37849,18.69,74134.3,9.37,-25.65,-26.81,0,*78
1496386938.14,37850,18.69,74144.8,9.39,-25.03,-26.17,0,*71
1496386939.37,37851,18.69,74148.5,9.43,-25.55,-27.07,0,*7E
1496386940.57,37852,18.69,74152.3,9.43,-27.71,-28.97,0,*7F
1496386941.79,37853,18.69,74150.3,9.45,-27.51,-29.07,0,*72
1496386943.02,37854,18.69,74146.3,9.45,-27.67,-29.07,0,*70
1496386944.24,37855,18.69,74146.3,9.47,-28.37,-29.89,0,*7F
1496386945.48,37856,18.69,74146.3,9.45,-30.83,-32.39,0,*79
1496386946.71,37857,18.69,74140.8,9.41,-30.83,-32.23,0,*77
1496386947.94,37858,18.69,74134.3,9.41,-29.95,-31.29,0,*7E
1496386949.18,37859,18.69,74134.8,9.37,-30.05,-31.61,0,*73
1496386950.38,37860,18.69,74136.5,9.37,-31.05,-32.51,0,*78
1496386951.61,37861,18.69,74132.5,9.33,-29.95,-31.23,0,*7B
1496386952.84,37862,18.69,74132.3,9.33,-26.55,-27.67,0,*7C
1496386954.11,37863,18.69,74132.3,9.35,-24.87,-26.13,0,*74
1496386955.33,37864,18.69,74136.5,9.41,-24.93,-26.07,0,*70
1496386956.53,37865,18.69,74126.3,9.43,-24.61,-25.91,0,*72
1496386957.76,37866,18.69,74128.3,9.45,-26.49,-27.71,0,*73
1496386959.01,37867,18.69,74136.0,9.47,-25.29,-26.33,0,*72
1496386960.26,37868,18.69,74136.3,9.53,-25.49,-26.77,0,*7E
1496386961.5,37869,18.69,74134.8,9.53,-25.45,-26.61,0,*74
1496386962.75,37870,18.69,74138.8,9.57,-25.39,-26.55,0,*74
1496386964.0,37871,18.69,74136.5,9.57,-26.07,-27.35,0,*7C
1496386965.25,37872,18.69,74134.0,9.57,-26.39,-27.61,0,*73
1496386966.5,37873,18.69,74134.8,9.57,-28.09,-29.57,0,*74
1496386967.72,37874,18.69,74132.8,9.59,-30.55,-32.01,0,*74
1496386968.92,37875,18.69,74142.3,9.55,-32.01,-33.55,0,*7A
1496386970.17,37876,18.69,74144.0,9.53,-31.11,-32.39,0,*76
1496386971.38,37877,18.69,74138.5,9.47,-30.55,-32.13,0,*7B
1496386972.61,37878,18.69,74136.0,9.45,-31.67,-33.15,0,*71
1496386973.87,37879,18.69,74134.8,9.41,-31.95,-33.37,0,*79
1496386975.07,37880,18.69,74140.3,9.37,-32.69,-34.47,0,*7E
1496386976.26,37881,18.69,74136.8,9.33,-30.45,-32.01,0,*73
1496386977.51,37882,18.69,74140.0,9.33,-31.23,-32.97,0,*7E
1496386978.73,37883,18.69,74142.0,9.27,-30.67,-32.13,0,*77
1496386980.01,37884,18.69,74136.5,9.27,-30.05,-31.61,0,*72
1496386981.23,37885,18.69,74140.3,9.27,-30.45,-32.01,0,*72
1496386982.48,37886,18.69,74140.0,9.23,-31.39,-32.91,0,*76
1496386983.69,37887,18.69,74144.0,9.23,-32.51,-34.25,0,*73
1496386984.94,37888,18.69,74148.8,9.19,-32.57,-34.31,0,*76
1496386986.14,37889,18.69,74150.0,9.17,-31.67,-33.37,0,*78
1496386987.36,37890,18.69,74144.3,9.15,-32.51,-34.13,0,*75
1496386988.61,37891,18.69,74144.3,9.11,-30.83,-32.29,0,*72
1496386989.84,37892,18.69,74136.8,9.11,-31.79,-33.21,0,*7C
1496386991.09,37893,18.69,74140.3,9.09,-30.01,-31.57,0,*79
1496386992.36,37894,18.69,74136.8,9.05,-29.01,-30.55,0,*79
1496386993.62,37895,18.69,74142.3,9.05,-29.57,-30.89,0,*7A
1496386994.88,37896,18.69,74142.8,9.05,-30.05,-31.57,0,*74
1496386996.15,37897,18.69,74136.8,9.05,-30.01,-31.61,0,*74
1496386997.39,37898,18.69,74136.8,9.05,-31.05,-32.45,0,*7B
1496386998.59,37899,18.69,74140.5,9.03,-29.79,-31.17,0,*7A
1496386999.83,37900,18.69,74136.3,9.05,-28.31,-29.73,0,*7B
1496387001.1,37901,18.69,74140.0,9.05,-29.29,-30.61,0,*79
1496387002.32,37902,18.69,74132.8,9.03,-28.75,-30.11,0,*73
1496387003.59,37903,18.69,74136.8,9.05,-29.13,-30.55,0,*75
1496387004.84,37904,18.69,74134.0,9.05,-29.01,-30.33,0,*71
1496387006.09,37905,18.69,74134.8,9.05,-29.89,-31.29,0,*7A
1496387007.31,37906,18.69,74138.5,9.03,-27.35,-28.53,0,*73
1496387008.56,37907,18.69,74138.5,9.09,-26.13,-27.39,0,*7E
1496387009.76,37908,18.69,74142.3,9.09,-25.91,-27.03,0,*71
1496387011.01,37909,18.69,74146.0,9.13,-27.19,-28.43,0,*72
1496387012.22,37910,18.69,74146.3,9.15,-27.51,-28.97,0,*79
1496387013.45,37911,18.69,74142.3,9.15,-28.37,-29.67,0,*79
1496387014.72,37912,18.69,74152.3,9.15,-29.17,-30.05,0,*75
1496387015.98,37913,18.69,74144.3,9.15,-28.53,-30.01,0,*71
1496387017.23,37914,18.69,74140.5,9.15,-29.67,-31.11,0,*70
1496387018.5,37915,18.69,74142.8,9.15,-30.55,-31.95,0,*74
1496387019.72,37916,18.69,74142.3,9.13,-30.61,-32.23,0,*78
1496387020.98,37917,18.69,74140.8,9.11,-29.79,-31.11,0,*78
1496387022.22,37918,18.69,74142.5,9.09,-29.51,-31.01,0,*75
1496387023.41,37919,18.69,74140.8,9.09,-30.23,-31.67,0,*79
1496387024.66,37920,18.69,74146.3,9.05,-28.69,-30.01,0,*79
1496387025.92,37921,18.69,74136.0,9.09,-28.25,-29.51,0,*71
1496387027.16,37922,18.69,74142.0,9.05,-30.23,-31.61,0,*7B
1496387028.39,37923,18.69,74138.3,9.09,-28.69,-30.05,0,*72
1496387029.63,37924,18.69,74138.5,9.05,-31.57,-33.21,0,*79
1496387030.85,37925,18.69,74134.8,9.03,-31.91,-33.15,0,*73
1496387032.08,37926,18.69,74134.0,9.01,-28.85,-30.11,0,*78
1496387033.31,37927,18.69,74138.3,9.01,-26.39,-27.67,0,*77
1496387034.5,37928,18.69,74132.0,9.03,-27.51,-28.69,0,*74
1496387035.73,37929,18.69,74124.0,9.09,-26.93,-27.93,0,*7A
1496387036.96,37930,18.69,74134.8,9.11,-25.61,-27.03,0,*7C
1496387038.2,37931,18.69,74144.8,9.13,-26.03,-27.35,0,*7D
1496387039.42,37932,18.69,74142.8,9.15,-24.97,-26.03,0,*73
1496387040.67,37933,18.69,74150.8,9.19,-25.13,-26.29,0,*7B
1496387041.91,37934,18.69,74158.3,9.21,-25.71,-27.03,0,*7A
1496387043.14,37935,18.69,74146.0,9.21,-26.03,-27.23,0,*7F
1496387044.4,37936,18.69,74150.5,9.23,-28.25,-29.57,0,*79
1496387045.65,37937,18.69,74140.8,9.23,-26.87,-28.05,0,*78
1496387046.89,37938,18.69,74130.8,9.23,-26.55,-27.71,0,*74
1496387048.13,37939,18.69,74130.5,9.27,-24.31,-25.35,0,*73
1496387049.37,37940,18.69,74144.3,9.31,-23.85,-24.93,0,*7F
1496387050.66,37941,18.69,74142.5,9.35,-24.25,-25.55,0,*7C
1496387051.89,37942,18.69,74148.5,9.39,-26.03,-27.29,0,*7C
1496387053.13,37943,18.69,74150.5,9.43,-24.51,-25.75,0,*7E
1496387054.37,37944,18.69,74146.0,9.43,-26.33,-27.67,0,*7E
1496387055.57,37945,18.69,74146.5,9.43,-25.35,-26.39,0,*70
1496387056.8,37946,18.69,74150.5,9.47,-24.57,-25.71,0,*7D
1496387058.02,37947,18.69,74138.5,9.47,-25.49,-26.71,0,*71
1496387059.31,37948,18.69,74134.0,9.49,-26.81,-28.05,0,*7A
1496387060.56,37949,18.69,74138.8,9.49,-26.65,-27.99,0,*7B
1496387061.82,37950,18.69,74136.0,9.49,-27.29,-28.63,0,*70
1496387063.05,37951,18.69,74138.8,9.53,-26.45,-27.67,0,*7A
1496387064.27,37952,18.69,74140.0,9.53,-26.23,-27.29,0,*73
1496387065.5,37953,18.69,74140.8,9.55,-24.11,-25.09,0,*77
1496387066.75,37954,18.69,74150.0,9.57,-23.79,-24.87,0,*7C
1496387067.97,37955,18.69,74150.8,9.61,-23.39,-24.47,0,*70
1496387069.23,37956,18.69,74150.3,9.65,-24.71,-25.91,0,*76
1496387070.46,37957,18.69,74146.5,9.67,-24.25,-25.35,0,*7A
1496387071.69,37958,18.69,74150.5,9.69,-23.43,-24.57,0,*79
1496387072.94,37959,18.69,74144.8,9.73,-23.85,-24.97,0,*75
1496387074.19,37960,18.69,74146.8,9.77,-26.03,-27.19,0,*75
1496387075.42,37961,18.69,74150.3,9.79,-25.55,-26.87,0,*7C
1496387076.65,37962,18.69,74148.0,9.79,-26.03,-27.23,0,*70
1496387077.88,37963,18.69,74144.5,9.79,-25.97,-27.13,0,*7C
1496387079.14,37964,18.69,74126.3,9.79,-26.81,-27.99,0,*7D
1496387080.33,37965,18.69,74130.5,9.79,-25.23,-26.49,0,*7B
1496387081.58,37966,18.69,74126.5,9.83,-23.95,-25.03,0,*7B
1496387082.8,37967,18.69,74132.3,9.83,-23.65,-24.93,0,*7D
1496387084.04,37968,18.69,74134.8,9.87,-24.47,-25.55,0,*7A
1496387085.3,37969,18.69,74126.5,9.89,-26.33,-27.55,0,*76
1496387086.55,37970,18.69,74130.3,9.89,-26.87,-28.05,0,*7B
1496387087.84,37971,18.69,74132.8,9.89,-24.71,-25.81,0,*70
1496387089.09,37972,18.69,74132.3,9.93,-25.13,-26.29,0,*7C
1496387090.34,37973,18.69,74132.3,9.93,-24.35,-25.45,0,*71
1496387091.55,37974,18.69,74128.8,9.95,-25.13,-26.39,0,*7D
1496387092.78,37975,18.69,74128.0,9.95,-24.31,-25.45,0,*75
1496387094.02,37976,18.69,74134.3,9.99,-24.25,-25.39,0,*74
1496387095.24,37977,18.69,74130.0,9.99,-23.85,-24.93,0,*79
1496387096.47,37978,18.69,74138.0,10.03,-24.57,-25.81,0,*47
1496387097.74,37979,18.69,74140.0,10.05,-24.83,-25.81,0,*49
1496387098.97,37980,18.69,74142.3,10.07,-26.61,-27.77,0,*48
1496387100.21,37981,18.69,74138.3,10.07,-24.77,-25.91,0,*46
1496387101.42,37982,18.69,74140.5,10.09,-24.51,-25.65,0,*44
1496387102.65,37983,18.69,74148.0,10.09,-26.07,-27.35,0,*43
1496387103.94,37984,18.69,74148.0,10.07,-32.07,-33.89,0,*4D
1496387105.16,37985,18.69,74150.0,10.03,-30.55,-32.01,0,*4C
1496387106.38,37986,18.69,74144.0,9.99,-30.83,-32.29,0,*75
1496387107.66,37987,18.69,74144.8,9.93,-28.79,-30.01,0,*7A
1496387108.92,37988,18.69,74150.0,9.95,-25.55,-26.77,0,*76
1496387110.17,37989,18.69,74146.0,9.95,-25.97,-27.23,0,*79
1496387111.38,37990,18.69,74148.8,9.95,-27.93,-29.45,0,*79
1496387112.6,37991,18.69,74148.8,9.95,-31.17,-32.97,0,*76
1496387113.82,37992,18.69,74146.3,9.91,-32.75,-34.25,0,*79
1496387115.1,37993,18.69,74150.0,9.89,-30.61,-32.19,0,*7F
1496387116.34,37994,18.69,74154.3,9.85,-30.39,-31.67,0,*73
1496387117.6,37995,18.69,74150.5,9.81,-30.39,-31.73,0,*73
1496387118.83,37996,18.69,74146.3,9.81,-27.55,-28.85,0,*7D
1496387120.1,37997,18.69,74148.0,9.81,-24.83,-26.17,0,*71
1496387121.3,37998,18.69,74140.5,9.83,-26.61,-27.93,0,*7F
1496387122.52,37999,18.69,74142.3,9.83,-27.77,-29.13,0,*7E
1496387123.78,38000,18.69,74148.0,9.85,-27.07,-28.21,0,*79
1496387125.06,38001,18.69,74142.5,9.85,-26.33,-27.61,0,*75
1496387126.3,38002,18.69,74150.0,9.85,-25.81,-27.13,0,*79
1496387127.53,38003,18.69,74140.5,9.87,-28.05,-29.95,0,*7B
1496387128.8,38004,18.69,74136.5,9.85,-29.73,-31.11,0,*7B
1496387130.06,38005,18.69,74136.3,9.83,-28.79,-30.17,0,*70
1496387131.29,38006,18.69,74144.3,9.81,-26.39,-27.51,0,*7F
1496387132.51,38007,18.69,74144.5,9.83,-25.29,-26.45,0,*7A
1496387133.78,38008,18.69,74144.0,9.85,-25.29,-26.33,0,*72
1496387134.98,38009,18.69,74142.0,9.87,-24.77,-26.07,0,*7C
1496387136.21,38010,18.69,74144.5,9.91,-25.03,-26.23,0,*77
1496387137.4,38011,18.69,74142.0,9.91,-25.09,-26.23,0,*7C
1496387138.63,38012,18.69,74144.5,9.95,-23.65,-24.47,0,*77
1496387139.86,38013,18.69,74146.3,9.99,-23.85,-25.09,0,*7F
1496387141.11,38014,18.69,74144.3,10.01,-25.09,-26.17,0,*4F
1496387142.32,38015,18.69,74150.0,10.05,-25.49,-26.61,0,*4F
1496387143.56,38016,18.69,74146.5,10.05,-26.81,-28.15,0,*46
1496387144.83,38017,18.69,74144.8,10.05,-26.33,-27.61,0,*42
1496387146.04,38018,18.69,74146.8,10.03,-28.85,-30.27,0,*4C
1496387147.29,38019,18.69,74140.5,10.03,-28.47,-30.05,0,*43
1496387148.56,38020,18.69,74140.3,10.01,-29.73,-31.11,0,*49
1496387149.79,38021,18.69,74142.0,9.99,-30.23,-31.61,0,*7B
1496387150.99,38022,18.69,74140.0,9.95,-30.83,-32.23,0,*7B
1496387152.25,38023,18.69,74146.8,9.93,-29.57,-30.89,0,*7F
1496387153.53,38024,18.69,74146.0,9.89,-28.21,-30.05,0,*77
1496387154.79,38025,18.69,74134.5,9.89,-29.89,-31.45,0,*70
1496387156.02,38026,18.69,74134.5,9.87,-27.13,-28.47,0,*7A
1496387157.27,38027,18.69,74142.5,9.89,-26.87,-28.05,0,*7F
1496387158.5,38028,18.69,74136.0,9.87,-26.03,-27.23,0,*79
1496387159.73,38029,18.69,74138.5,9.91,-24.83,-26.03,0,*76
1496387160.99,38030,18.69,74138.0,9.93,-24.35,-25.45,0,*70
1496387162.18,38031,18.69,74140.3,9.95,-25.09,-26.23,0,*7A
1496387163.38,38032,18.69,74144.3,9.99,-26.23,-27.55,0,*7E
1496387164.6,38033,18.69,74142.8,9.99,-29.07,-30.55,0,*70
1496387165.84,38034,18.69,74140.5,9.99,-29.13,-30.67,0,*73
1496387167.11,38035,18.69,74142.8,9.93,-29.13,-30.55,0,*79
1496387168.35,38036,18.69,74140.8,9.93,-27.51,-28.79,0,*75
1496387169.6,38037,18.69,74142.3,9.93,-28.05,-29.23,0,*74
1496387170.84,38038,18.69,74140.0,9.93,-26.13,-27.07,0,*7A
1496387172.08,38039,18.69,74144.5,9.93,-24.51,-25.61,0,*7D
1496387173.34,38040,18.69,74144.0,10.01,-23.59,-24.71,0,*4F
1496387174.57,38041,18.69,74140.8,10.03,-24.87,-26.03,0,*4F
1496387175.78,38042,18.69,74140.8,10.03,-24.05,-25.13,0,*44
1496387177.03,38043,18.69,74150.3,10.09,-23.85,-25.03,0,*41
1496387178.29,38044,18.69,74142.3,10.11,-24.11,-25.19,0,*4E
1496387179.51,38045,18.69,74142.5,10.13,-24.31,-25.49,0,*4A
1496387180.77,38046,18.69,74140.0,10.15,-24.87,-26.03,0,*4F
1496387182.0,38047,18.69,74142.5,10.17,-23.49,-24.51,0,*4C
1496387183.22,38048,18.69,74146.5,10.21,-23.13,-24.11,0,*4D
1496387184.45,38049,18.69,74146.5,10.23,-22.67,-23.75,0,*49
1496387185.68,38050,18.69,74144.5,10.29,-23.13,-24.15,0,*48
1496387186.93,38051,18.69,74144.0,10.31,-26.23,-27.35,0,*47
1496387188.21,38052,18.69,74140.0,10.31,-26.17,-27.35,0,*43
1496387189.4,38053,18.69,74144.5,10.29,-24.93,-25.91,0,*49
1496387190.64,38054,18.69,74140.3,10.31,-24.05,-25.09,0,*49
1496387191.9,38055,18.69,74144.3,10.35,-25.13,-26.29,0,*4B
1496387193.15,38056,18.69,74140.5,10.35,-26.29,-27.55,0,*48
1496387194.38,38057,18.69,74142.5,10.33,-26.97,-28.37,0,*41
1496387195.58,38058,18.69,74144.5,10.33,-30.11,-31.79,0,*45
1496387196.81,38059,18.69,74146.3,10.29,-32.79,-34.47,0,*4B
1496387198.04,38060,18.69,74146.5,10.25,-32.07,-33.95,0,*4C
1496387199.3,38061,18.69,74146.3,10.15,-30.95,-32.39,0,*40
1496387200.52,38062,18.69,74148.0,10.13,-30.73,-32.13,0,*45
1496387201.76,38063,18.69,74150.5,10.09,-30.67,-32.19,0,*40
1496387203.02,38064,18.69,74150.3,10.07,-30.89,-32.35,0,*47
1496387204.24,38065,18.69,74150.5,10.03,-31.11,-32.57,0,*46
1496387205.47,38066,18.69,74150.8,10.03,-31.33,-32.85,0,*4A
1496387206.7,38067,18.69,74150.0,9.99,-30.83,-32.29,0,*7C
1496387207.95,38068,18.69,74148.3,9.95,-30.55,-32.07,0,*78
1496387209.16,38069,18.69,74144.8,9.93,-30.23,-31.67,0,*7B
1496387210.38,38070,18.69,74142.8,9.91,-30.51,-32.01,0,*77
1496387211.61,38071,18.69,74142.0,9.89,-30.11,-31.67,0,*78
1496387212.87,38072,18.69,74142.8,9.89,-29.57,-31.11,0,*70
1496387214.09,38073,18.69,74134.3,9.87,-29.23,-30.55,0,*7D
1496387215.32,38074,18.69,74136.0,9.87,-27.61,-29.07,0,*7D
1496387216.54,38075,18.69,74132.5,9.87,-27.45,-29.07,0,*7A
1496387217.79,38076,18.69,74132.5,9.89,-29.29,-30.45,0,*7D
1496387219.02,38077,18.69,74132.5,9.85,-27.51,-28.85,0,*74
1496387220.22,38078,18.69,74132.8,9.87,-26.87,-28.15,0,*7A
1496387221.47,38079,18.69,74138.3,9.87,-26.13,-27.23,0,*7C
1496387222.72,38080,18.69,74136.3,9.91,-24.67,-25.71,0,*79
1496387223.96,38081,18.69,74140.3,9.93,-24.35,-25.39,0,*71
1496387225.18,38082,18.69,74142.3,9.95,-23.85,-24.97,0,*7D
1496387226.4,38083,18.69,74144.8,10.01,-25.35,-26.49,0,*45
1496387227.63,38084,18.69,74142.3,10.05,-25.81,-27.51,0,*41
1496387228.86,38085,18.69,74144.3,10.05,-27.19,-28.53,0,*4E
1496387230.1,38086,18.69,74142.5,10.03,-26.81,-28.15,0,*49
1496387231.34,38087,18.69,74140.3,10.05,-26.97,-28.37,0,*49
1496387232.58,38088,18.69,74134.0,10.05,-27.13,-28.63,0,*4A
1496387233.79,38089,18.69,74130.8,10.05,-26.45,-27.51,0,*47
1496387235.06,38090,18.69,74126.0,10.05,-26.81,-28.21,0,*4F
1496387236.32,38091,18.69,74122.8,10.07,-26.61,-27.99,0,*4E
1496387237.58,38092,18.69,74130.0,10.07,-26.07,-27.23,0,*4C
1496387238.78,38093,18.69,74136.8,10.09,-25.35,-26.65,0,*42
1496387240.03,38094,18.69,74140.3,10.07,-26.55,-27.93,0,*46
1496387241.24,38095,18.69,74136.3,10.09,-26.03,-27.07,0,*47
1496387242.51,38096,18.69,74138.5,10.11,-24.35,-25.55,0,*4F
1496387243.78,38097,18.69,74132.8,10.17,-24.41,-25.55,0,*4B
1496387245.03,38098,18.69,74134.3,10.17,-25.29,-26.29,0,*43
1496387246.24,38099,18.69,74134.0,10.21,-23.59,-24.61,0,*48
1496387247.49,38100,18.69,74134.3,10.23,-23.49,-24.47,0,*4E
1496387248.75,38101,18.69,74138.0,10.27,-23.53,-24.57,0,*41
1496387250.03,38102,18.69,74142.3,10.31,-23.49,-24.71,0,*4A
1496387251.25,38103,18.69,74148.8,10.33,-22.87,-23.85,0,*46
1496387252.5,38104,18.69,74154.3,10.35,-23.23,-24.35,0,*44
1496387253.7,38105,18.69,74150.0,10.39,-24.93,-26.07,0,*46
1496387254.96,38106,18.69,74148.0,10.39,-27.35,-28.63,0,*46
1496387256.18,38107,18.69,74150.8,10.39,-24.51,-25.49,0,*43
1496387257.41,38108,18.69,74150.3,10.39,-24.11,-25.35,0,*43
1496387258.69,38109,18.69,74144.5,10.45,-26.97,-28.43,0,*49
1496387259.95,38110,18.69,74146.5,10.41,-26.77,-28.37,0,*48
1496387261.2,38111,18.69,74146.0,10.41,-27.93,-29.13,0,*45
1496387262.42,38112,18.69,74150.8,10.41,-25.09,-26.23,0,*4B
1496387263.66,38113,18.69,74154.5,10.41,-24.47,-25.61,0,*44
1496387264.88,38114,18.69,74152.5,10.45,-27.67,-29.07,0,*4A
1496387266.14,38115,18.69,74152.0,10.41,-27.71,-28.91,0,*46
1496387267.39,38116,18.69,74140.3,10.41,-26.71,-27.71,0,*45
1496387268.65,38117,18.69,74142.0,10.41,-27.19,-28.47,0,*41
1496387269.9,38118,18.69,74146.5,10.41,-26.71,-27.93,0,*47
1496387271.16,38119,18.69,74150.8,10.41,-24.71,-25.87,0,*43
1496387272.42,38120,18.69,74142.3,10.45,-25.81,-27.03,0,*4D
1496387273.64,38121,18.69,74146.8,10.45,-25.19,-26.23,0,*4E
1496387274.86,38122,18.69,74148.0,10.47,-24.35,-25.49,0,*4F
1496387276.1,38123,18.69,74150.3,10.47,-24.21,-25.39,0,*4C
1496387277.33,38124,18.69,74150.3,10.49,-24.05,-25.13,0,*4B
1496387278.58,38125,18.69,74150.8,10.53,-23.33,-24.47,0,*43
1496387279.82,38126,18.69,74148.8,10.55,-25.55,-27.67,0,*41
1496387281.05,38127,18.69,74150.5,10.55,-28.75,-30.11,0,*48
1496387282.3,38128,18.69,74144.5,10.53,-28.25,-29.67,0,*4D
1496387283.56,38129,18.69,74140.0,10.51,-27.99,-29.51,0,*43
1496387284.79,38130,18.69,74150.8,10.47,-28.15,-29.39,0,*49
1496387286.05,38131,18.69,74150.8,10.47,-29.17,-30.61,0,*4E
1496387287.27,38132,18.69,74142.5,10.41,-32.13,-33.83,0,*4A
1496387288.5,38133,18.69,74146.3,10.37,-32.51,-33.95,0,*4B
1496387289.74,38134,18.69,74138.0,10.33,-29.35,-30.83,0,*44
1496387290.97,38135,18.69,74136.0,10.31,-27.55,-28.97,0,*43
1496387292.17,38136,18.69,74146.3,10.29,-28.15,-29.67,0,*4C
1496387293.4,38137,18.69,74134.8,10.31,-26.45,-27.71,0,*46
1496387294.63,38138,18.69,74136.8,10.31,-25.87,-27.07,0,*45
1496387295.89,38139,18.69,74134.3,10.31,-26.55,-27.89,0,*4E
1496387297.14,38140,18.69,74126.8,10.31,-27.89,-29.39,0,*45
1496387298.36,38141,18.69,74124.5,10.33,-27.03,-28.47,0,*4C
1496387299.61,38142,18.69,74134.5,10.33,-25.81,-26.97,0,*44
1496387300.84,38143,18.69,74140.0,10.33,-24.87,-26.03,0,*4F